Regional Weather Roundup
Issued by NWS Charleston, WV

Home | Current Version | Previous Version | Graphics & Text | Print | Product List | Glossary On
Versions: 1 2 3 4 5 6 7 8 9 10 11 12 13 14 15 16 17 18 19 20 21 22 23 24 25 26 27 28 29 30 31 32 33 34 35 36 37 38 39 40 41 42 43 44 45 46 47 48 49
000
ASUS41 KRLX 011710
RWRRLX
West Virginia Regional Weather Roundup
National Weather Service Charleston WV
100 PM EDT MON JUN 01 2015

Note: "fair" indicates few or no clouds below 12,000 feet with no
significant weather and/or obstructions to visibility.

WVZ003-011800-
Northern Panhandle of West Virginia

CITY           SKY/WX    TMP DP  RH WIND       PRES   REMARKS
WHEELING       CLOUDY    53  46  77 NW8       30.16R
$$

WVZ009-011800-
Northwest West Virginia

CITY           SKY/WX    TMP DP  RH WIND       PRES   REMARKS
PARKERSBURG    CLOUDY    59  50  72 VRB3      30.16R
$$

WVZ006-011800-
Western West Virginia

CITY           SKY/WX    TMP DP  RH WIND       PRES   REMARKS
HUNTINGTON     CLOUDY    61  54  77 E5        30.10S
$$

WVZ015-011800-
West Central West Virginia

CITY           SKY/WX    TMP DP  RH WIND       PRES   REMARKS
CHARLESTON     LGT RAIN  65  58  78 VRB3      30.09S
$$

WVZ022-031-011800-
North Central West Virginia

CITY           SKY/WX    TMP DP  RH WIND       PRES   REMARKS
CLARKSBURG     CLOUDY    58  55  90 N5        30.12S
MORGANTOWN     CLOUDY    56  50  80 N5        30.14S
$$

WVZ025-035-042-045-011800-
Southern West Virginia

CITY           SKY/WX    TMP DP  RH WIND       PRES   REMARKS
BECKLEY        CLOUDY    75  59  57 W6        30.11F
LOGAN          PTSUNNY   72  66  83 CALM      30.05F HAZE
BLUEFIELD      CLOUDY    72  58  61 N9        30.13S
LEWISBURG      PTSUNNY   76  62  62 CALM      30.11F
$$

WVZ047-011800-
Northern Mountains of West Virginia

CITY           SKY/WX    TMP DP  RH WIND       PRES   REMARKS
ELKINS         PTSUNNY   74  62  66 NW9       30.09F
$$

WVZ052-011800-
Eastern Panhandle of West Virginia

CITY           SKY/WX    TMP DP  RH WIND       PRES   REMARKS
MARTINSBURG    PTSUNNY   82  65  56 W7        30.03S
PETERSBURG     PTSUNNY   78  66  66 W3        30.05R
$$



USA.gov is the U.S. government's official web portal to all federal, state and local government web resources and services.